GFSMW_850_spd_042.txt.gz
Wind_Speed
18 20 22 24 25 24 24 25 24 21 19 18 17 16 17 18 19 20 20 20 20 18 16 18 18 18 16 15 15 11 7 4 6 8 9 10 8 7 7 7 7 6 6
17 21 23 24 25 27 28 28 27 24 21 17 18 16 17 17 17 20 22 21 21 20 18 20 19 19 18 18 15 11 7 5 7 6 9 10 11 8 9 10 9 9 8
20 21 24 26 26 28 27 27 25 23 21 19 16 16 16 17 18 24 25 25 25 22 21 20 21 21 20 19 17 14 11 6 8 11 7 8 13 10 11 11 9 9 9
21 21 23 27 28 27 25 25 24 23 23 23 20 22 21 19 20 23 25 24 25 23 24 23 23 23 23 21 19 18 16 9 15 19 15 12 10 9 10 9 9 10 10
24 26 27 27 26 25 26 26 26 26 25 24 24 22 22 19 18 19 22 25 25 27 26 25 25 25 23 23 22 21 15 15 18 16 7 10 10 10 10 15 12 13 13
26 26 24 24 25 26 27 28 29 29 27 24 23 27 25 23 28 28 28 28 27 27 28 26 26 26 25 25 24 19 17 17 13 9 10 11 12 11 13 15 15 15 15
27 28 28 29 27 28 29 30 31 32 32 25 25 27 26 30 34 30 31 30 31 31 29 29 28 28 28 25 22 19 17 14 10 11 10 11 11 11 11 13 16 15 14
25 30 29 28 28 28 29 30 32 33 33 30 24 24 30 33 36 29 30 30 31 30 27 29 30 28 27 25 21 17 18 12 11 10 10 11 11 11 11 12 14 17 17
16 21 25 28 25 25 27 27 27 29 31 28 25 12 28 29 27 26 28 27 29 28 27 28 29 29 28 24 19 17 14 10 9 10 10 11 11 11 11 12 13 15 20
4 9 12 16 20 22 21 22 23 23 22 22 30 26 27 20 19 21 23 24 23 26 27 28 29 31 27 24 21 20 9 7 8 11 11 11 11 13 13 13 15 15 18
0 3 6 8 10 13 15 16 18 18 18 18 26 28 25 23 20 18 18 18 20 21 26 27 33 32 28 24 20 11 13 10 19 12 13 13 13 13 14 15 16 17 17
4 2 5 6 7 8 10 11 12 13 14 15 17 15 16 17 19 19 20 21 21 22 26 29 33 31 27 22 17 16 14 15 16 14 16 17 15 16 16 17 19 19 19
4 4 6 8 10 11 12 11 11 12 12 12 14 16 18 21 21 21 21 21 18 17 25 28 29 24 20 16 16 20 15 23 17 18 19 20 20 20 19 20 20 20 20
7 7 8 8 8 9 9 10 11 12 13 13 15 16 17 15 14 14 13 14 14 17 23 27 25 23 20 22 24 20 25 24 24 21 21 23 24 23 22 22 22 21 22
6 7 8 8 8 8 8 9 9 9 8 8 8 9 9 8 9 8 10 12 15 17 20 21 22 24 27 25 25 28 31 28 22 21 22 23 25 27 26 25 23 22 22
8 8 9 10 9 10 9 8 7 6 5 5 5 4 5 6 7 9 11 12 13 14 16 22 27 26 28 31 33 32 34 31 22 22 22 23 26 30 30 30 28 26 24
12 13 12 13 12 12 11 10 9 7 6 5 3 2 3 4 6 7 8 10 11 13 14 21 22 21 27 32 28 29 28 22 21 22 23 23 23 28 26 27 30 29 28
15 15 15 17 16 14 12 10 9 8 7 7 6 5 4 2 1 1 2 3 5 8 9 10 15 20 21 23 22 22 22 23 23 23 23 24 25 25 27 25 27 25 25
15 15 15 15 15 14 13 13 13 13 12 12 11 11 10 8 7 5 3 1 1 6 10 13 17 18 18 17 17 19 24 23 24 23 24 24 24 25 29 33 29 29 29
16 16 16 16 16 16 15 15 15 14 14 13 13 12 10 8 6 2 5 7 8 8 8 8 10 14 17 19 20 22 26 25 26 26 25 26 29 26 29 33 33 31 30
17 17 16 16 16 16 16 17 16 15 13 12 9 6 3 2 2 3 2 2 4 7 9 13 14 16 17 20 23 23 25 26 29 30 30 27 28 31 28 29 34 36 31
18 16 17 17 16 16 15 15 14 13 10 7 6 4 5 4 2 2 4 6 7 9 11 13 15 15 16 19 21 25 26 28 30 33 34 33 33 33 30 29 32 32 33
19 18 18 18 17 15 13 14 12 10 9 8 8 6 3 2 2 3 5 5 7 9 11 13 14 15 16 20 24 23 23 26 30 31 35 38 36 35 36 35 33 31 32
20 20 20 19 19 16 15 12 12 12 11 9 6 4 1 2 4 5 6 7 10 11 13 13 14 16 16 17 23 28 30 31 33 32 33 35 37 37 31 35 35 29 27
22 21 20 19 18 17 15 14 13 11 9 7 5 2 1 2 4 6 8 9 10 14 15 15 16 16 16 21 25 27 29 32 36 37 36 36 33 30 28 29 26 25 21
24 22 21 21 20 19 17 16 13 11 8 5 3 0 2 4 4 5 5 14 12 13 14 15 17 19 21 24 26 28 29 31 32 28 24 28 29 31 29 28 20 18 18

GFSMW_850_spd_045.txt.gz
Wind_Speed
22 19 23 24 25 25 25 22 26 28 19 19 17 16 17 17 18 17 18 18 17 19 19 14 15 14 13 13 14 12 11 8 8 5 7 11 17 14 9 10 9 9 8
22 23 23 24 23 24 25 25 26 24 22 18 18 17 16 18 18 18 21 21 18 18 19 17 16 15 15 16 16 14 10 9 9 6 7 10 12 12 12 11 11 11 10
24 26 26 27 26 27 27 27 26 24 21 20 16 16 15 16 19 19 18 23 21 20 21 19 18 17 17 17 17 17 15 11 10 9 11 7 10 12 12 13 12 11 12
24 26 28 29 30 29 27 27 26 26 26 22 21 20 19 20 18 21 22 23 22 21 21 20 20 21 18 17 17 16 15 15 13 15 15 15 12 8 10 10 12 13 10
26 27 29 30 29 28 29 29 28 27 25 25 24 22 19 17 17 19 20 21 18 23 23 22 23 23 19 17 18 17 18 16 17 14 12 8 9 12 14 16 13 12 12
26 27 27 27 29 30 30 31 30 29 28 27 25 24 22 20 21 22 22 19 20 20 24 25 26 25 26 23 21 23 21 20 18 18 12 11 11 14 15 18 18 17 17
26 27 28 29 29 30 31 33 31 32 31 30 30 26 28 24 26 28 26 23 21 24 27 28 28 28 28 25 26 25 24 19 19 16 9 10 12 14 14 16 18 17 16
29 30 30 30 30 30 30 31 31 31 31 32 34 30 32 30 26 24 25 30 33 37 31 30 27 27 28 30 27 26 22 20 19 12 9 12 12 14 14 16 17 18 17
20 31 32 31 30 29 30 33 30 28 28 34 37 30 36 33 26 26 30 31 31 31 31 28 27 27 30 29 28 25 23 20 16 12 11 12 16 13 15 16 16 15 19
6 16 22 29 30 28 27 29 27 27 29 36 34 35 36 31 27 26 24 19 29 29 27 26 26 26 29 30 27 26 21 17 11 15 14 15 14 15 17 17 16 16 18
5 6 11 15 19 22 24 25 25 25 26 27 21 28 32 24 21 21 17 19 24 24 23 26 28 27 28 28 26 21 17 16 19 16 17 15 17 19 19 18 18 18 18
1 5 8 10 13 16 20 22 22 23 23 24 20 25 26 21 23 20 18 20 20 20 22 22 25 24 27 24 22 20 17 21 18 17 16 14 19 21 21 21 20 20 21
6 6 8 9 11 13 15 16 17 18 18 18 17 19 19 19 20 20 20 19 18 21 20 21 22 27 24 22 23 20 24 23 22 21 17 20 20 24 25 24 24 23 24
10 9 10 11 12 13 14 14 14 15 16 16 16 14 15 17 15 14 14 13 13 16 17 18 21 22 20 21 25 23 24 20 27 25 23 22 23 25 26 27 28 26 28
9 11 12 13 13 13 13 14 13 13 13 13 12 12 10 8 6 3 4 6 8 10 12 13 16 18 19 22 22 22 18 26 31 28 29 23 22 24 29 31 31 28 29
8 9 12 13 13 13 14 14 13 12 11 13 11 10 9 8 9 9 8 6 6 8 7 8 8 10 13 15 22 17 21 31 30 30 23 21 24 27 29 31 32 39 38
11 12 13 13 14 13 13 14 14 14 14 14 13 12 10 9 8 6 4 3 2 2 2 3 5 7 7 13 15 22 26 27 27 22 21 23 24 26 27 29 33 34 35
14 15 16 17 17 17 17 17 16 16 15 15 13 11 10 8 7 7 6 5 4 2 1 2 4 8 12 15 19 20 22 21 20 21 23 25 27 27 28 30 32 33 33
18 17 18 18 18 17 17 17 17 16 15 14 13 12 11 11 11 9 6 5 4 4 5 5 8 11 15 12 14 17 18 19 22 23 24 26 28 30 31 33 36 38 38
18 19 18 18 17 17 17 18 17 17 16 15 14 13 11 10 9 7 6 3 3 1 0 1 3 7 9 12 16 19 20 23 24 24 26 28 31 33 34 35 36 36 37
19 19 18 17 17 17 18 18 17 17 16 15 14 11 9 6 5 7 6 5 3 2 3 5 5 6 8 8 17 22 24 25 29 32 34 34 34 33 36 36 35 39 37
21 19 19 19 18 18 19 18 18 16 15 13 9 9 10 9 7 6 4 2 1 1 3 5 6 6 6 11 19 23 26 28 29 32 33 32 34 37 40 42 44 40 36
23 21 20 20 18 17 18 18 17 16 13 12 12 10 9 7 6 4 2 1 1 2 4 6 6 7 9 9 18 23 26 28 30 32 34 36 38 38 39 37 36 36 35
24 22 22 21 19 17 16 16 16 15 14 13 11 10 9 6 5 4 2 1 1 3 5 6 7 9 11 11 23 26 27 28 30 32 36 36 35 31 30 32 32 29 28
23 23 22 21 20 19 18 17 16 15 14 12 10 9 8 6 4 3 3 3 8 8 9 10 11 14 15 19 22 25 27 28 29 31 30 27 27 28 30 30 29 29 30
24 23 22 22 21 19 18 16 15 14 14 12 10 9 7 6 4 3 5 8 9 9 10 12 13 14 18 19 21 23 25 24 24 23 23 25 25 26 25 24 24 26 27

GFSMW_850_spd_048.txt.gz
Wind_Speed
22 21 24 24 25 25 27 29 34 38 38 42 42 26 24 24 26 24 20 23 21 23 24 20 21 19 17 16 17 18 18 19 20 18 14 12 16 18 18 15 13 9 14
25 27 28 27 24 21 22 31 32 32 32 33 30 26 24 22 23 23 22 22 23 23 22 22 21 21 18 20 21 21 21 17 17 14 11 10 8 18 16 14 15 14 14
31 30 32 31 33 30 25 25 24 30 30 25 25 25 20 20 22 24 25 29 29 23 23 20 22 22 19 22 23 23 20 17 20 17 13 6 5 12 14 16 16 15 16
34 34 35 36 35 34 30 31 32 29 28 23 23 23 26 24 25 25 25 23 22 27 23 22 22 24 24 23 26 23 21 22 18 19 17 13 12 7 6 7 13 18 20
32 36 37 36 40 33 38 33 33 30 29 27 28 23 25 20 24 26 26 29 25 24 25 24 24 29 27 25 26 23 20 22 25 21 20 12 10 11 11 15 14 14 18
34 35 37 36 36 36 36 36 36 36 35 31 27 26 26 23 22 23 25 27 21 18 25 26 26 30 29 25 26 26 25 28 26 20 17 13 9 10 11 14 15 14 15
33 34 36 38 37 39 39 39 39 37 34 31 28 26 24 21 27 27 23 23 16 18 28 22 26 31 28 26 27 29 30 29 23 20 18 14 11 16 17 15 22 23 23
32 34 35 39 39 40 40 40 40 38 36 36 32 30 27 29 31 30 33 30 28 25 33 32 28 29 30 28 30 31 29 25 23 20 18 18 21 21 18 18 19 21 24
26 32 35 38 41 42 42 43 41 37 37 38 42 43 27 31 33 35 28 27 29 30 32 33 29 28 29 28 30 32 29 23 21 20 20 22 21 16 15 17 18 22 23
5 17 33 35 39 43 43 42 41 39 38 38 43 44 38 33 30 36 32 27 30 30 24 24 26 26 26 29 30 30 27 23 19 20 20 16 16 16 14 19 22 23 24
9 5 8 14 34 37 46 47 42 38 34 34 39 43 45 40 34 32 31 27 22 22 23 22 25 25 25 29 31 30 26 22 22 23 17 18 20 18 19 20 23 25 25
2 9 6 7 11 12 14 30 35 34 28 32 35 30 31 38 32 31 27 23 21 21 21 22 22 23 26 31 31 27 21 23 26 20 17 16 15 16 19 23 25 29 28
9 7 9 9 10 10 14 16 22 22 21 26 29 20 21 28 25 24 22 21 21 22 23 19 20 22 25 26 24 20 22 26 22 20 18 18 18 20 21 25 28 30 30
12 9 13 12 12 13 15 17 17 17 17 19 22 24 25 29 25 24 21 20 21 19 18 19 21 22 22 23 22 21 21 22 21 20 20 24 23 24 24 27 29 29 31
7 10 12 18 17 16 17 17 19 21 21 19 22 24 25 19 18 16 15 17 18 17 16 17 16 15 17 17 14 14 17 19 20 19 22 29 25 22 20 24 29 32 36
10 11 15 18 20 18 20 24 22 21 17 20 20 18 15 13 10 10 9 10 11 10 8 7 8 9 9 9 11 10 15 14 19 23 30 26 18 18 23 26 29 31 35
8 9 13 16 21 20 22 20 20 20 21 20 19 18 18 18 18 15 13 11 9 8 7 7 6 6 6 7 7 8 11 18 23 24 22 20 21 22 27 31 33 35 35
13 13 15 18 20 21 21 21 21 22 19 19 19 18 17 15 14 13 12 11 10 8 7 7 6 4 6 7 9 13 17 17 17 16 17 22 25 26 27 31 35 38 39
18 18 17 18 20 23 22 24 23 23 22 19 17 16 15 15 14 14 12 10 8 9 11 9 6 6 6 6 9 13 15 16 18 21 24 25 28 29 31 33 36 39 42
20 20 21 22 22 23 25 26 24 22 21 19 18 17 16 16 15 14 14 11 10 7 7 6 5 1 5 8 12 15 19 21 25 27 28 30 32 33 34 38 42 45 45
24 24 24 25 25 25 26 24 24 22 21 21 20 20 19 16 12 9 10 11 11 10 12 10 8 7 10 12 15 17 20 25 28 30 32 34 35 35 35 36 40 43 45
26 27 26 26 25 25 25 25 24 24 25 23 20 16 13 12 13 14 14 13 10 9 6 7 6 7 10 12 18 21 21 22 26 29 31 33 34 34 34 33 32 30 30
28 27 27 26 24 23 24 25 26 24 22 18 17 17 16 15 14 12 12 11 9 11 11 9 8 8 11 15 19 19 20 23 25 27 29 30 31 30 28 29 28 30 30
28 26 26 27 26 24 23 22 21 19 20 19 17 17 16 14 14 11 11 13 13 10 8 8 9 11 12 17 18 20 22 23 25 27 28 28 26 27 28 29 28 26 23
27 27 27 26 24 23 23 21 20 21 20 19 18 18 17 13 15 14 11 10 7 7 8 10 10 12 13 16 18 20 22 23 24 26 25 23 23 30 29 29 28 27 31
27 26 24 24 23 23 21 21 20 19 21 22 20 17 18 15 8 6 7 7 7 8 8 9 10 12 14 14 17 18 19 20 20 21 20 20 25 27 29 28 29 28 28

GFSMW_850_spd_054.txt.gz
Wind_Speed
9 10 14 17 19 19 21 26 32 33 35 37 45 43 43 32 33 35 36 26 23 21 21 21 22 20 22 22 22 21 22 22 20 19 21 20 20 20 17 15 16 16 18
17 16 17 22 26 24 23 30 36 36 37 42 43 43 40 39 37 34 37 35 29 26 26 28 29 25 25 24 25 25 25 23 23 25 25 21 23 24 23 21 19 19 21
26 24 24 27 29 29 29 30 36 38 41 37 39 40 41 33 37 40 37 36 31 30 25 24 26 28 28 29 27 27 27 28 28 29 25 11 18 19 21 21 18 20 24
28 30 31 32 32 30 30 32 33 36 41 36 35 42 46 40 36 35 36 37 36 32 26 25 26 27 28 31 30 29 31 30 29 31 30 31 21 10 7 16 18 20 22
35 37 37 34 31 30 31 31 33 39 40 38 44 46 47 39 32 32 33 34 35 33 28 29 30 26 27 30 31 31 33 32 29 30 33 30 27 23 18 16 22 18 19
40 38 38 35 33 33 33 34 34 37 42 47 45 44 39 35 33 33 31 29 32 33 30 29 29 27 29 30 30 29 30 26 29 32 33 30 30 27 22 22 24 22 25
45 45 42 44 40 40 39 40 38 38 43 45 40 39 39 38 38 35 31 31 34 36 33 33 33 27 23 28 26 33 29 26 31 33 32 33 30 27 25 28 23 24 25
47 49 49 46 45 45 45 44 44 43 44 45 44 41 39 39 39 38 36 36 37 33 34 34 29 26 21 26 28 28 25 29 31 30 30 26 26 27 29 27 25 28 26
46 50 52 49 48 48 49 49 48 46 44 46 44 43 42 41 42 40 39 40 39 36 37 35 32 25 23 24 24 26 26 27 29 30 30 27 28 27 26 22 22 23 30
44 50 49 51 50 48 49 50 50 49 46 44 42 42 43 43 43 41 40 38 34 35 30 27 34 28 24 26 22 24 23 26 27 29 29 28 28 24 19 20 22 28 28
42 45 50 50 48 50 50 49 49 50 47 46 43 45 49 50 52 47 41 39 32 35 31 32 29 28 27 27 25 25 26 25 27 28 28 26 23 17 20 22 25 23 26
30 38 42 45 47 47 44 46 49 50 46 42 28 42 47 54 56 51 37 37 33 33 34 28 27 26 26 24 23 24 26 27 27 27 25 23 18 18 18 16 17 19 22
23 28 29 32 37 41 47 48 49 51 50 47 41 40 44 46 46 25 40 45 45 33 36 29 28 24 23 23 25 26 27 27 25 23 21 19 16 18 19 16 19 23 26
25 26 28 27 24 25 30 43 51 53 52 53 47 41 41 43 43 42 43 40 40 40 34 28 24 23 23 25 25 27 26 22 20 20 19 17 20 21 16 21 22 19 20
24 28 28 26 24 23 21 24 36 47 49 54 46 42 39 40 39 38 37 45 33 29 26 25 25 24 24 25 25 22 20 20 19 18 17 18 20 14 18 22 16 18 22
24 30 27 26 26 25 23 20 22 31 43 45 43 39 40 38 35 32 29 33 30 29 27 25 26 25 24 22 19 19 19 19 18 16 17 19 16 18 24 20 21 22 26
25 32 30 29 31 33 29 26 24 26 30 36 36 38 37 33 31 32 31 30 28 26 25 25 24 22 19 18 18 19 18 17 14 16 17 17 21 25 23 23 24 26 29
29 29 29 30 32 33 30 27 26 27 29 33 37 38 38 36 35 31 26 24 24 24 24 23 22 21 20 19 18 17 16 15 17 18 20 22 23 22 24 27 29 30 31
33 31 28 27 30 33 31 30 28 26 27 31 33 35 35 34 29 26 23 23 22 23 23 22 21 20 20 18 17 18 19 18 18 18 19 19 20 23 25 27 29 30 30
23 25 26 24 29 33 33 31 29 27 27 27 28 28 27 25 23 21 22 21 21 20 20 20 19 18 18 19 19 18 17 17 16 16 18 19 20 21 23 25 27 29 29
19 21 21 24 30 33 32 29 26 24 22 21 23 25 24 22 20 21 20 20 21 21 21 21 20 20 21 20 19 17 17 16 16 17 18 18 19 21 22 23 23 25 29
21 21 22 26 29 29 29 27 25 24 23 24 25 24 22 23 22 21 22 22 23 23 23 22 22 22 20 18 18 18 17 16 17 17 17 18 19 21 22 21 22 24 27
21 22 23 25 25 25 26 26 26 26 25 24 23 24 23 21 20 20 22 22 22 23 25 24 23 22 21 19 18 16 16 16 16 17 18 19 19 18 18 19 21 22 23
25 22 23 25 26 25 25 25 26 25 23 22 22 21 20 21 20 22 24 23 24 24 22 22 22 21 19 18 16 15 15 16 17 17 16 17 17 17 18 19 20 20 21
25 25 25 25 26 27 26 25 24 22 21 20 22 23 23 22 23 22 21 21 22 20 19 18 17 17 17 16 16 15 17 18 18 17 17 17 18 18 19 21 22 22 22
28 27 26 27 28 27 26 25 24 24 24 25 24 23 23 24 23 23 23 21 18 16 15 14 15 15 16 17 18 17 18 17 17 16 17 18 19 20 21 23 25 25 24

GFSMW_850_spd_057.txt.gz
Wind_Speed
9 6 6 10 13 15 14 16 26 33 38 40 41 40 38 40 36 35 30 30 27 28 25 17 17 18 17 16 17 17 21 21 19 16 17 18 19 21 20 19 16 16 15
16 11 10 14 17 16 20 20 22 29 35 41 39 36 38 38 40 39 36 30 30 26 21 18 19 19 19 18 20 21 24 25 23 22 21 20 24 26 26 24 22 22 20
21 17 15 16 19 22 22 22 23 27 35 38 41 39 39 40 41 39 42 38 31 27 23 20 22 24 25 24 24 24 26 29 28 27 23 10 16 19 22 26 26 24 21
23 20 18 17 19 22 21 21 24 28 32 35 41 45 42 43 41 45 44 40 37 32 31 26 24 25 25 27 29 28 29 30 31 30 30 32 29 12 9 17 18 19 18
29 26 24 19 18 19 20 21 25 29 29 32 36 38 45 47 45 42 41 44 40 38 35 32 30 29 28 29 29 29 30 31 34 34 34 32 33 30 24 24 23 23 20
33 29 25 23 22 21 23 26 30 33 35 38 40 38 43 45 47 45 42 45 41 39 39 38 35 32 31 33 32 28 27 30 28 37 36 34 35 35 29 31 30 24 25
35 35 33 32 29 29 28 30 32 34 36 39 41 39 42 48 49 42 39 39 40 39 40 37 37 33 34 33 26 33 30 27 31 31 29 31 38 30 30 25 26 27 27
37 40 40 37 35 34 34 34 35 35 38 43 43 42 42 44 44 40 40 41 40 36 34 32 34 34 34 32 32 28 32 30 29 25 28 36 28 32 28 28 28 29 27
38 41 43 42 39 39 39 39 39 38 38 43 45 46 45 44 44 42 42 42 40 39 33 30 32 35 36 36 32 28 28 28 25 27 32 30 31 26 25 28 29 26 24
38 40 41 45 44 42 41 42 42 42 41 41 45 47 46 44 44 43 42 41 40 38 37 36 35 36 40 42 33 30 28 25 25 26 26 31 27 27 26 27 23 20 20
38 42 42 43 47 46 43 44 46 47 45 44 45 47 47 43 45 48 44 42 41 40 36 31 35 32 36 42 36 32 27 25 26 27 29 29 27 26 23 23 21 20 22
33 39 42 43 43 46 49 50 48 50 50 51 46 47 52 54 51 50 47 35 38 42 42 36 42 30 35 39 37 30 27 30 26 27 27 28 23 20 22 21 19 20 21
28 32 33 37 40 43 45 47 50 54 53 52 51 53 53 53 55 53 52 42 40 40 46 36 36 36 34 32 33 27 27 25 26 27 27 22 20 21 22 19 20 22 24
24 29 31 32 33 35 38 43 46 48 52 56 54 53 56 56 49 47 47 43 44 49 41 39 39 34 32 32 27 27 27 27 27 25 23 22 21 21 21 22 23 24 25
26 30 32 33 31 33 35 36 38 41 45 49 51 55 56 55 47 41 38 37 36 37 39 38 38 38 31 29 27 27 28 28 26 23 20 21 20 22 23 25 23 23 22
29 33 35 35 34 32 31 31 30 33 40 44 47 48 51 49 51 40 39 37 38 41 37 34 34 30 30 29 28 28 28 25 22 22 23 21 22 22 22 22 23 22 23
30 33 35 38 37 37 35 32 29 29 33 40 44 47 45 44 44 42 38 38 40 36 34 33 28 29 29 30 29 26 22 21 22 22 22 24 23 23 21 23 23 22 24
31 32 32 34 42 40 34 32 31 30 30 35 37 41 43 43 44 42 41 40 33 29 31 31 28 28 28 25 24 23 22 22 22 22 23 22 22 23 22 23 23 25 26
33 33 30 31 38 36 33 33 32 31 30 31 33 34 37 40 39 35 34 30 31 31 28 25 27 27 25 25 23 23 23 22 22 21 22 22 23 23 22 24 25 26 26
23 27 27 30 30 32 31 32 33 33 32 32 32 32 33 31 29 28 27 29 25 25 28 26 25 24 23 23 20 19 20 20 20 20 20 19 19 21 23 24 25 25 26
16 14 18 23 23 23 26 31 32 33 32 30 25 23 22 22 23 26 27 27 26 24 25 25 24 21 19 19 19 19 18 19 19 18 18 19 20 21 22 25 23 23 25
14 12 13 15 17 21 25 29 30 29 25 22 21 21 24 27 27 27 26 23 23 25 26 25 24 22 21 21 21 21 19 18 17 17 18 18 19 21 22 22 21 22 23
21 19 19 19 21 24 26 28 26 24 22 22 23 24 24 23 21 22 23 24 23 24 24 23 23 23 23 23 21 19 16 15 16 17 17 18 20 20 18 19 21 22 23
23 22 21 21 21 23 23 22 21 21 21 21 21 21 21 21 20 20 20 21 22 22 21 22 23 20 20 18 17 16 15 15 15 16 17 17 18 19 20 20 20 21 23
23 21 20 21 21 22 22 21 20 19 20 20 20 21 21 21 22 20 19 19 19 18 17 18 18 19 18 17 16 14 14 15 16 17 18 18 17 18 19 20 20 21 22
21 21 20 21 21 20 19 19 20 19 19 20 21 22 22 22 20 21 21 19 16 18 17 16 16 17 16 14 16 16 15 19 20 16 15 16 17 17 18 19 21 22 23

GFSMW_850_spd_060.txt.gz
Wind_Speed
9 6 6 9 13 13 16 19 25 30 31 33 38 36 37 37 36 38 38 34 28 29 24 22 20 16 16 11 9 13 14 13 14 15 16 18 19 20 20 18 17 18 14
15 13 11 14 14 13 13 15 22 30 38 37 36 38 34 36 36 35 34 32 27 21 23 21 18 19 18 16 17 15 16 16 19 21 21 21 22 25 24 24 23 22 20
20 19 17 16 15 19 19 18 19 27 39 39 42 39 36 38 41 34 36 38 33 26 23 23 23 20 17 16 17 18 18 19 20 25 23 10 15 17 18 21 23 25 24
22 19 17 15 14 17 20 21 22 27 34 43 42 44 41 41 43 43 38 35 33 27 28 28 20 19 19 19 21 22 23 23 24 27 30 31 32 19 12 18 19 20 22
24 24 21 15 14 14 20 22 24 25 32 39 40 47 46 41 36 41 40 40 42 35 30 28 27 25 23 22 23 23 26 27 29 30 32 33 33 35 35 26 23 22 22
26 24 21 18 17 15 17 22 26 30 32 35 37 43 49 46 43 43 41 45 40 45 38 37 34 33 32 29 28 30 30 32 29 28 28 30 29 34 36 34 30 27 23
27 26 27 25 22 22 20 21 25 31 34 36 38 40 45 46 45 47 48 47 44 47 48 42 40 40 37 33 33 34 34 30 32 30 31 24 30 34 37 31 24 24 22
27 28 28 27 25 25 25 25 26 28 33 35 37 38 40 41 45 47 50 50 50 47 46 46 42 39 37 38 37 35 35 34 31 35 33 30 28 27 33 28 26 25 24
25 29 29 30 29 28 29 29 29 28 31 33 35 39 40 41 42 44 44 46 48 46 42 40 39 37 33 31 32 37 36 33 29 27 29 28 26 29 26 28 25 25 23
22 26 29 29 31 32 30 30 31 30 30 31 35 37 39 41 41 41 46 45 44 42 39 38 37 36 39 38 35 38 37 36 32 30 27 27 26 25 27 26 26 25 26
22 24 28 29 29 32 35 35 35 34 35 35 34 35 38 38 39 41 42 44 44 43 39 35 35 36 32 31 31 31 36 38 35 30 27 27 26 27 26 26 27 24 24
20 21 24 28 31 33 35 38 38 38 38 37 38 40 41 42 41 44 45 47 46 45 42 41 42 37 38 36 33 35 36 36 31 31 30 28 27 27 26 28 25 24 24
14 20 23 25 28 32 33 36 39 41 41 41 42 44 43 42 50 52 53 51 50 46 38 44 44 39 38 39 34 33 32 29 31 30 33 27 30 30 28 24 24 23 22
15 19 23 26 27 28 28 31 32 35 43 47 46 47 46 47 48 51 47 47 48 49 39 45 47 43 37 38 33 31 29 27 28 30 27 31 33 28 27 24 24 24 22
19 20 23 25 26 28 29 30 31 30 34 39 46 50 52 48 49 52 53 49 45 41 40 49 54 51 44 40 34 32 29 27 27 30 33 32 26 24 24 25 24 24 24
22 24 28 29 30 30 30 30 30 33 32 32 34 36 42 47 54 55 53 50 47 44 42 45 46 39 37 36 32 32 27 26 27 32 31 27 26 25 26 26 22 22 22
33 27 29 30 33 36 34 33 32 34 33 31 32 34 36 37 39 44 50 51 48 47 43 40 37 31 30 29 27 26 28 29 31 28 25 26 25 25 26 22 22 21 22
28 35 35 34 34 38 39 37 38 34 33 33 32 32 33 35 35 35 38 40 40 42 38 33 32 32 27 27 27 31 33 28 24 24 24 24 25 25 22 20 20 21 21
22 24 28 32 29 33 38 43 38 35 34 34 32 30 31 32 32 33 35 35 32 32 30 30 28 25 30 30 32 29 25 23 22 22 22 23 23 23 19 18 21 20 21
22 22 22 27 31 30 31 40 38 35 32 31 29 28 28 28 29 29 31 30 30 29 28 26 27 26 24 24 23 22 21 21 21 22 22 21 19 17 17 19 20 20 21
22 23 23 24 25 26 25 28 34 31 30 28 26 25 22 20 18 18 20 22 23 25 25 25 23 23 22 21 21 19 18 17 18 18 18 17 16 17 18 19 19 20 22
21 17 9 11 13 15 17 20 22 23 22 21 19 16 14 13 13 16 20 23 27 28 25 23 23 22 21 19 18 17 16 15 16 16 15 15 15 17 18 18 19 21 22
21 20 14 14 12 11 11 11 14 16 16 14 14 15 14 15 17 19 23 25 23 20 20 21 21 21 19 18 17 17 17 16 15 14 13 13 15 16 17 16 19 21 21
12 10 11 9 8 8 10 12 12 13 13 13 14 15 16 15 15 16 16 16 17 17 16 17 17 17 17 18 19 18 17 15 13 13 13 13 12 13 15 18 18 19 20
16 10 4 7 3 11 12 8 9 11 13 14 15 16 16 17 16 14 11 9 9 8 9 12 13 17 18 18 18 15 13 13 12 11 11 12 14 16 16 17 17 19 20
19 15 8 7 4 9 10 10 11 12 13 15 16 16 16 16 16 16 16 15 14 14 15 16 19 20 16 15 14 12 11 13 13 13 14 16 15 15 15 18 19 19 22